FW2710 Weather Reports


Display with metric or nautical units.
time (UTC)temp
F
wind
direction
speed
MPH
gust
MPH
rain 1hr
in
rain 24hr
in
rain mn
in
humidity
%
barometer
mb
20260902132531 78 291 0.0 1.0 0.00 0.00 0.00 80 1016.8
20260902132027 78 0 0.0 3.0 0.00 0.00 0.00 81 1016.8
20260902131547 78 0 0.0 3.0 0.00 0.00 0.00 82 1016.8
20260902131029 77 0 0.0 3.0 0.00 0.00 0.00 81 1016.8
20260902130527 77 0 0.0 0.0 0.00 0.00 0.00 82 1016.8
20260902130045 77 0 0.0 0.0 0.00 0.00 0.00 82 1016.8
20260902125527 77 0 0.0 0.0 0.00 0.00 0.00 82 1016.8
20260902125027 76 0 0.0 0.0 0.00 0.00 0.00 83 1016.7
20260902124553 76 0 0.0 0.0 0.00 0.00 0.00 83 1016.7
20260902124024 76 0 0.0 0.0 0.00 0.00 0.00 83 1016.8
20260902123526 76 0 0.0 0.0 0.00 0.00 0.00 83 1016.8
20260902123048 75 0 0.0 0.0 0.00 0.00 0.00 84 1016.7
20260902122532 75 0 0.0 0.0 0.00 0.00 0.00 84 1016.7
20260902122027 75 0 0.0 0.0 0.00 0.00 0.00 84 1016.8
20260902121546 75 0 0.0 0.0 0.00 0.00 0.00 84 1016.8
20260902121026 75 0 0.0 0.0 0.00 0.00 0.00 84 1016.8
20260902120528 75 0 0.0 0.0 0.00 0.00 0.00 84 1016.8
20260902120052 75 0 0.0 0.0 0.00 0.00 0.00 84 1016.7
20260902115524 74 0 0.0 0.0 0.00 0.00 0.00 85 1016.7
20260902115026 74 0 0.0 0.0 0.00 0.00 0.00 85 1016.7
20260902114547 74 0 0.0 0.0 0.00 0.00 0.00 85 1016.6
20260902114027 74 0 0.0 0.0 0.00 0.00 0.00 85 1016.5
20260902113527 74 0 0.0 0.0 0.00 0.00 0.00 85 1016.6
20260902113046 74 0 0.0 0.0 0.00 0.00 0.00 84 1016.6
20260902112528 74 0 0.0 0.0 0.00 0.00 0.00 84 1016.5
20260902112027 74 0 0.0 0.0 0.00 0.00 0.00 84 1016.5
20260902111557 75 0 0.0 0.0 0.00 0.00 0.00 84 1016.5
20260902111024 75 0 0.0 0.0 0.00 0.00 0.00 83 1016.5
20260902110524 75 0 0.0 0.0 0.00 0.00 0.00 83 1016.4
20260902110047 75 0 0.0 0.0 0.00 0.00 0.00 83 1016.4
20260902105526 75 0 0.0 0.0 0.00 0.00 0.00 83 1016.3
20260902105024 75 0 0.0 0.0 0.00 0.00 0.00 83 1016.3
20260902104548 75 0 0.0 0.0 0.00 0.00 0.00 83 1016.2
20260902104028 75 0 0.0 0.0 0.00 0.00 0.00 83 1016.2
20260902103526 75 0 0.0 0.0 0.00 0.00 0.00 82 1016.2
20260902103047 75 0 0.0 0.0 0.00 0.00 0.00 82 1016.2
20260902102526 75 0 0.0 0.0 0.00 0.00 0.00 82 1016.3
20260902102025 75 0 0.0 0.0 0.00 0.00 0.00 82 1016.3
20260902101555 75 0 0.0 0.0 0.00 0.00 0.00 82 1016.3
20260902101026 76 0 0.0 0.0 0.00 0.00 0.00 82 1016.3
20260902100524 75 0 0.0 0.0 0.00 0.00 0.00 82 1016.3
20260902100045 75 0 0.0 0.0 0.00 0.00 0.00 81 1016.2
20260902095525 76 0 0.0 0.0 0.00 0.00 0.00 81 1016.3
20260902095026 76 0 0.0 0.0 0.00 0.00 0.00 81 1016.4
20260902094546 76 0 0.0 0.0 0.00 0.00 0.00 81 1016.4
20260902094027 76 0 0.0 0.0 0.00 0.00 0.00 80 1016.4
20260902093527 76 0 0.0 0.0 0.00 0.00 0.00 80 1016.4
20260902093116 76 0 0.0 0.0 0.00 0.00 0.00 79 1016.4
20260902092524 77 0 0.0 0.0 0.00 0.00 0.00 79 1016.3
20260902092027 77 0 0.0 0.0 0.00 0.00 0.00 78 1016.2
20260902091553 77 0 0.0 0.0 0.00 0.00 0.00 78 1016.1
20260902091024 77 0 0.0 0.0 0.00 0.00 0.00 77 1016.2
20260902090533 78 0 0.0 0.0 0.00 0.00 0.00 77 1016.1
20260902090054 78 0 0.0 0.0 0.00 0.00 0.00 76 1016.1
20260902085528 78 0 0.0 0.0 0.00 0.00 0.00 76 1016.1
20260902085026 78 0 0.0 0.0 0.00 0.00 0.00 76 1016.0
20260902084554 78 0 0.0 2.0 0.00 0.00 0.00 76 1016.0
20260902084029 78 0 0.0 3.0 0.00 0.00 0.00 75 1015.9
20260902083529 78 0 0.0 3.0 0.00 0.00 0.00 75 1016.0
20260902083054 78 0 0.0 0.0 0.00 0.00 0.00 75 1016.0
20260902082527 78 0 0.0 0.0 0.00 0.00 0.00 75 1016.0
20260902082027 78 0 0.0 0.0 0.00 0.00 0.00 75 1016.0
20260902081608 79 0 0.0 3.0 0.00 0.00 0.00 74 1016.0
20260902081027 79 0 0.0 4.0 0.00 0.00 0.00 74 1015.9
20260902080527 79 0 0.0 7.0 0.00 0.00 0.00 73 1016.0
20260902080047 79 0 0.0 7.0 0.00 0.00 0.00 73 1015.9
20260902075526 79 0 0.0 3.0 0.00 0.00 0.00 74 1015.9
20260902075027 78 0 0.0 3.0 0.00 0.00 0.00 74 1015.9
20260902074545 78 0 0.0 0.0 0.00 0.00 0.00 74 1016.0
20260902074026 78 0 0.0 0.0 0.00 0.00 0.00 74 1015.9
20260902073528 78 0 0.0 0.0 0.00 0.00 0.00 74 1015.9
20260902073051 78 0 0.0 0.0 0.00 0.00 0.00 74 1015.8
20260902072526 78 0 0.0 0.0 0.00 0.00 0.00 74 1015.9
20260902072027 78 0 0.0 0.0 0.00 0.00 0.00 74 1016.0
20260902071559 78 0 0.0 0.0 0.00 0.00 0.00 74 1015.9
20260902071027 78 0 0.0 0.0 0.00 0.00 0.00 74 1015.9
20260902070527 78 0 0.0 0.0 0.00 0.00 0.00 74 1015.9
20260902070050 78 0 0.0 0.0 0.00 0.00 0.00 75 1016.1
20260902065529 78 0 0.0 0.0 0.00 0.00 0.00 75 1016.2
20260902065027 78 0 0.0 0.0 0.00 0.00 0.00 75 1016.1
20260902064548 78 0 0.0 0.0 0.00 0.00 0.00 76 1016.3
20260902064028 78 0 0.0 0.0 0.00 0.00 0.00 77 1016.4
20260902063530 77 0 0.0 0.0 0.00 0.00 0.00 77 1016.4
20260902063051 77 0 0.0 0.0 0.00 0.00 0.00 78 1016.4
20260902062528 77 0 0.0 0.0 0.00 0.00 0.00 78 1016.3
20260902062030 77 0 0.0 0.0 0.00 0.00 0.00 79 1016.3
20260902061550 77 0 0.0 0.0 0.00 0.00 0.00 79 1016.4
20260902061026 76 0 0.0 0.0 0.00 0.00 0.00 80 1016.3
20260902060527 76 0 0.0 0.0 0.00 0.00 0.00 80 1016.3
20260902060109 76 0 0.0 0.0 0.00 0.00 0.00 81 1016.4
20260902055526 76 0 0.0 0.0 0.00 0.00 0.00 81 1016.3
20260902055027 76 0 0.0 0.0 0.00 0.00 0.00 81 1016.3
20260902054550 76 0 0.0 0.0 0.00 0.00 0.00 81 1016.4
20260902054027 76 0 0.0 0.0 0.00 0.00 0.00 82 1016.4
20260902053531 77 0 0.0 0.0 0.00 0.00 0.00 82 1016.4
20260902053053 77 0 0.0 0.0 0.00 0.00 0.00 82 1016.4
20260902052529 77 0 0.0 0.0 0.00 0.00 0.00 82 1016.3
20260902052026 77 0 0.0 0.0 0.00 0.00 0.00 82 1016.3
20260902051546 77 0 0.0 0.0 0.00 0.00 0.00 82 1016.4
20260902051027 77 0 0.0 0.0 0.00 0.00 0.00 82 1016.3
20260902050529 77 0 0.0 0.0 0.00 0.00 0.00 82 1016.2
20260902050108 77 0 0.0 0.0 0.00 0.00 0.00 82 1016.3
20260902045525 77 0 0.0 0.0 0.00 0.00 0.00 82 1016.3
20260902045024 77 0 0.0 0.0 0.00 0.00 0.00 82 1016.3
20260902044606 77 0 0.0 0.0 0.00 0.00 0.00 82 1016.2
20260902044027 78 0 0.0 0.0 0.00 0.00 0.00 82 1016.3
20260902043526 78 0 0.0 0.0 0.00 0.00 0.00 82 1016.3
20260902043046 78 0 0.0 0.0 0.00 0.00 0.00 82 1016.2
20260902042527 78 0 0.0 0.0 0.00 0.00 0.00 82 1016.3
20260902042029 78 0 0.0 0.0 0.00 0.00 0.00 82 1016.3
20260902041553 78 0 0.0 0.0 0.00 0.00 0.00 82 1016.2
20260902041030 78 0 0.0 0.0 0.00 0.00 0.00 82 1016.1
20260902040526 78 0 0.0 0.0 0.00 0.00 0.00 82 1016.2
20260902040104 78 0 0.0 0.0 0.00 0.00 0.00 82 1016.1
20260902035524 78 0 0.0 0.0 0.00 0.00 0.00 82 1016.3
20260902035027 78 0 0.0 0.0 0.00 0.00 0.00 82 1016.3
20260902034556 79 0 0.0 0.0 0.00 0.00 0.00 82 1016.3
20260902034027 79 0 0.0 0.0 0.00 0.00 0.00 81 1016.3
20260902033523 79 0 0.0 0.0 0.00 0.00 0.00 81 1016.3
20260902033057 79 0 0.0 0.0 0.00 0.00 0.00 81 1016.3
20260902032527 79 0 0.0 0.0 0.00 0.00 0.00 81 1016.3
20260902032024 79 0 0.0 0.0 0.00 0.00 0.00 81 1016.3
20260902031549 79 0 0.0 0.0 0.00 0.00 0.00 81 1016.3
20260902031026 79 0 0.0 0.0 0.00 0.00 0.00 81 1016.4
20260902030526 79 0 0.0 0.0 0.00 0.00 0.00 81 1016.3
20260902030045 79 0 0.0 0.0 0.00 0.00 0.00 81 1016.4
20260902025526 79 0 0.0 0.0 0.00 0.00 0.00 81 1016.4
20260902025024 80 0 0.0 0.0 0.00 0.00 0.00 81 1016.4
20260902024555 80 0 0.0 0.0 0.00 0.00 0.00 81 1016.3
20260902024027 80 0 0.0 0.0 0.00 0.00 0.00 80 1016.3
20260902023523 80 0 0.0 0.0 0.00 0.00 0.00 80 1016.2
20260902023048 80 0 0.0 0.0 0.00 0.00 0.00 81 1016.2
20260902022526 80 0 0.0 0.0 0.00 0.00 0.00 81 1016.3
20260902022029 80 0 0.0 0.0 0.00 0.00 0.00 81 1016.2
20260902021552 80 0 0.0 0.0 0.00 0.00 0.00 81 1016.2
20260902021029 81 0 0.0 0.0 0.00 0.00 0.00 81 1016.1
20260902020527 80 0 0.0 0.0 0.00 0.00 0.00 81 1016.1
20260902020045 80 0 0.0 0.0 0.00 0.00 0.00 81 1016.1
20260902015526 81 0 0.0 0.0 0.00 0.00 0.00 81 1016.0
20260902015026 81 0 0.0 0.0 0.00 0.00 0.00 80 1016.1
20260902014550 81 0 0.0 0.0 0.00 0.00 0.00 79 1016.1
20260902014026 81 0 0.0 0.0 0.00 0.00 0.00 78 1016.0
20260902013526 82 0 0.0 0.0 0.00 0.00 0.00 78 1016.0
20260902013047 82 0 0.0 0.0 0.00 0.00 0.00 77 1015.9
20260902012523 82 0 0.0 0.0 0.00 0.00 0.00 76 1015.8
20260902012025 83 0 0.0 0.0 0.00 0.00 0.00 75 1015.9
20260902011548 83 0 0.0 0.0 0.00 0.00 0.00 74 1015.9
20260902011027 83 0 0.0 0.0 0.00 0.00 0.00 74 1015.8
20260902010526 83 0 0.0 0.0 0.00 0.00 0.00 73 1015.8
20260902010046 83 0 0.0 0.0 0.00 0.00 0.00 73 1015.7
20260902005526 83 0 0.0 0.0 0.00 0.00 0.00 73 1015.7
20260902005027 84 0 0.0 0.0 0.00 0.00 0.00 73 1015.8
20260902004547 84 0 0.0 0.0 0.00 0.00 0.00 71 1015.7
20260902004026 84 0 0.0 0.0 0.00 0.00 0.00 71 1015.8
20260902003526 84 0 0.0 0.0 0.00 0.00 0.00 71 1015.7
20260902003043 84 0 0.0 0.0 0.00 0.00 0.00 70 1015.8
20260902002523 84 0 0.0 0.0 0.00 0.00 0.00 71 1015.8
20260902002027 85 0 0.0 0.0 0.00 0.00 0.00 70 1015.7
20260902001549 85 0 0.0 0.0 0.00 0.00 0.00 71 1015.7
20260902001034 85 0 0.0 0.0 0.00 0.00 0.00 71 1015.7
20260902000528 86 0 0.0 0.0 0.00 0.00 0.00 71 1015.7
20260902000047 86 0 0.0 0.0 0.00 0.00 0.00 70 1015.7
20260901235527 86 0 0.0 0.0 0.00 0.00 0.00 69 1015.8
20260901235028 87 0 0.0 0.0 0.00 0.00 0.00 69 1015.8
20260901234545 87 0 0.0 0.0 0.00 0.00 0.00 68 1015.8
20260901234026 87 0 0.0 0.0 0.00 0.00 0.00 68 1015.8
20260901233524 88 0 0.0 0.0 0.00 0.00 0.00 67 1015.8
20260901233053 88 0 0.0 0.0 0.00 0.00 0.00 68 1015.9
20260901232527 89 0 0.0 0.0 0.00 0.00 0.00 67 1015.9
20260901232027 89 0 0.0 0.0 0.00 0.00 0.00 66 1015.9
20260901231548 89 0 0.0 0.0 0.00 0.00 0.00 65 1016.0
20260901231025 90 0 0.0 0.0 0.00 0.00 0.00 64 1015.9
20260901230528 90 0 0.0 0.0 0.00 0.00 0.00 62 1015.9
20260901230050 90 0 0.0 0.0 0.00 0.00 0.00 62 1015.9
20260901225527 91 0 0.0 0.0 0.00 0.00 0.00 61 1015.9
20260901225027 91 0 0.0 0.0 0.00 0.00 0.00 61 1015.9
20260901224547 92 0 0.0 0.0 0.00 0.00 0.00 61 1015.9
20260901224024 92 0 0.0 0.0 0.00 0.00 0.00 60 1016.0
20260901223527 92 0 0.0 0.0 0.00 0.00 0.00 62 1016.0
20260901223050 93 0 0.0 0.0 0.00 0.00 0.00 59 1016.0
20260901222526 93 0 0.0 0.0 0.00 0.00 0.00 60 1015.9
20260901222026 93 0 0.0 0.0 0.00 0.00 0.00 60 1015.9
20260901221546 94 0 0.0 0.0 0.00 0.00 0.00 58 1015.9
20260901221028 94 0 0.0 0.0 0.00 0.00 0.00 57 1015.9
20260901220528 94 0 0.0 0.0 0.00 0.00 0.00 57 1015.9
20260901220049 94 0 0.0 0.0 0.00 0.00 0.00 57 1015.9
20260901215527 94 0 0.0 0.0 0.00 0.00 0.00 56 1015.9
20260901215027 94 0 0.0 0.0 0.00 0.00 0.00 55 1015.8
20260901214551 94 0 0.0 0.0 0.00 0.00 0.00 54 1015.8
20260901214028 95 0 0.0 0.0 0.00 0.00 0.00 55 1015.8
20260901213526 95 0 0.0 0.0 0.00 0.00 0.00 54 1015.8
20260901213109 95 0 0.0 0.0 0.00 0.00 0.00 54 1015.8
20260901212524 95 0 0.0 0.0 0.00 0.00 0.00 53 1015.8
20260901212024 95 0 0.0 0.0 0.00 0.00 0.00 54 1015.8
20260901211548 95 0 0.0 0.0 0.00 0.00 0.00 55 1015.8
20260901211026 95 0 0.0 0.0 0.00 0.00 0.00 52 1015.9
20260901210527 95 0 0.0 0.0 0.00 0.00 0.00 54 1015.9
20260901210044 94 0 0.0 0.0 0.00 0.00 0.00 54 1015.9
20260901205530 94 0 0.0 0.0 0.00 0.00 0.00 51 1015.9
20260901205025 94 0 0.0 0.0 0.00 0.00 0.00 49 1016.0
20260901204551 94 0 0.0 0.0 0.00 0.00 0.00 52 1015.9
20260901204029 94 0 0.0 0.0 0.00 0.00 0.00 54 1015.9
20260901203525 94 0 0.0 0.0 0.00 0.00 0.00 53 1016.0
20260901203048 94 0 0.0 0.0 0.00 0.00 0.00 55 1015.9
20260901202524 94 0 0.0 0.0 0.00 0.00 0.00 56 1016.0
20260901202028 94 0 0.0 0.0 0.00 0.00 0.00 55 1016.0
20260901201547 94 0 0.0 0.0 0.00 0.00 0.00 52 1016.1
20260901201027 94 0 0.0 0.0 0.00 0.00 0.00 55 1016.1
20260901200528 94 0 0.0 0.0 0.00 0.00 0.00 55 1016.1
20260901200049 94 0 0.0 0.0 0.00 0.00 0.00 54 1016.2
20260901195526 94 0 0.0 0.0 0.00 0.00 0.00 55 1016.2
20260901195026 94 0 0.0 0.0 0.00 0.00 0.00 55 1016.2
20260901194549 94 0 0.0 0.0 0.00 0.00 0.00 56 1016.3
20260901194027 94 0 0.0 0.0 0.00 0.00 0.00 55 1016.3
20260901193524 94 0 0.0 0.0 0.00 0.00 0.00 55 1016.3
20260901193048 94 0 0.0 0.0 0.00 0.00 0.00 54 1016.3
20260901192528 94 0 0.0 0.0 0.00 0.00 0.00 55 1016.4
20260901192028 94 0 0.0 0.0 0.00 0.00 0.00 56 1016.4
20260901191550 93 0 0.0 0.0 0.00 0.00 0.00 54 1016.4
20260901191027 93 0 0.0 0.0 0.00 0.00 0.00 59 1016.5
20260901190528 93 0 0.0 0.0 0.00 0.00 0.00 59 1016.6
20260901190058 93 0 0.0 0.0 0.00 0.00 0.00 57 1016.6
20260901185527 93 0 0.0 0.0 0.00 0.00 0.00 57 1016.6
20260901185027 93 0 0.0 0.0 0.00 0.00 0.00 58 1016.6
20260901184550 93 0 0.0 0.0 0.00 0.00 0.00 56 1016.6
20260901184025 93 0 0.0 0.0 0.00 0.00 0.00 60 1016.6
20260901183525 92 0 0.0 0.0 0.00 0.00 0.00 60 1016.6
20260901183054 92 0 0.0 0.0 0.00 0.00 0.00 62 1016.6
20260901182527 92 0 0.0 0.0 0.00 0.00 0.00 61 1016.6
20260901182029 92 0 0.0 0.0 0.00 0.00 0.00 60 1016.7
20260901181549 92 0 0.0 0.0 0.00 0.00 0.00 61 1016.9
20260901181025 92 0 0.0 0.0 0.00 0.00 0.00 61 1016.8
20260901180524 92 0 0.0 0.0 0.00 0.00 0.00 57 1016.9
20260901180048 92 0 0.0 0.0 0.00 0.00 0.00 60 1016.9
20260901175527 92 0 0.0 0.0 0.00 0.00 0.00 64 1016.9
20260901175027 91 0 0.0 0.0 0.00 0.00 0.00 62 1017.0
20260901174548 91 0 0.0 0.0 0.00 0.00 0.00 65 1017.0
20260901174028 91 0 0.0 0.0 0.00 0.00 0.00 62 1017.2
20260901173527 91 0 0.0 0.0 0.00 0.00 0.00 62 1017.1
20260901173051 91 0 0.0 0.0 0.00 0.00 0.00 66 1017.1
20260901172531 90 0 0.0 0.0 0.00 0.00 0.00 62 1017.2
20260901172030 90 0 0.0 0.0 0.00 0.00 0.00 63 1017.3
20260901171605 90 0 0.0 0.0 0.00 0.00 0.00 64 1017.2
20260901171024 90 0 0.0 0.0 0.00 0.00 0.00 65 1017.3
20260901170527 90 0 0.0 0.0 0.00 0.00 0.00 67 1017.2
20260901170059 89 0 0.0 0.0 0.00 0.00 0.00 66 1017.1
20260901165527 89 0 0.0 0.0 0.00 0.00 0.00 69 1017.2
20260901165024 89 0 0.0 0.0 0.00 0.00 0.00 67 1017.2
20260901164553 89 0 0.0 0.0 0.00 0.00 0.00 66 1017.2
20260901164026 88 0 0.0 0.0 0.00 0.00 0.00 66 1017.2
20260901163527 88 0 0.0 0.0 0.00 0.00 0.00 69 1017.3
20260901163053 88 0 0.0 0.0 0.00 0.00 0.00 69 1017.3
20260901162525 88 0 0.0 0.0 0.00 0.00 0.00 68 1017.2
20260901162026 88 0 0.0 0.0 0.00 0.00 0.00 69 1017.3
20260901161549 87 0 0.0 0.0 0.00 0.00 0.00 67 1017.3
20260901161026 87 0 0.0 0.0 0.00 0.00 0.00 68 1017.3
20260901160530 87 0 0.0 0.0 0.00 0.00 0.00 70 1017.3
20260901160047 86 0 0.0 0.0 0.00 0.00 0.00 69 1017.3
20260901155524 86 0 0.0 0.0 0.00 0.00 0.00 69 1017.4
20260901155024 86 0 0.0 0.0 0.00 0.00 0.00 70 1017.3
20260901154547 86 0 0.0 0.0 0.00 0.00 0.00 70 1017.4
20260901154026 85 0 0.0 0.0 0.00 0.00 0.00 69 1017.3
20260901153529 85 0 0.0 0.0 0.00 0.00 0.00 70 1017.4
20260901153054 85 0 0.0 0.0 0.00 0.00 0.00 71 1017.3
20260901152524 85 0 0.0 0.0 0.00 0.00 0.00 73 1017.4
20260901152030 84 0 0.0 0.0 0.00 0.00 0.00 72 1017.3
20260901151543 84 0 0.0 0.0 0.00 0.00 0.00 72 1017.4
20260901151029 84 0 0.0 0.0 0.00 0.00 0.00 73 1017.3
20260901150530 84 0 0.0 0.0 0.00 0.00 0.00 73 1017.3
20260901150053 83 0 0.0 0.0 0.00 0.00 0.00 73 1017.2
20260901145530 83 0 0.0 0.0 0.00 0.00 0.00 74 1017.2
20260901145028 82 0 0.0 0.0 0.00 0.00 0.00 74 1017.3
20260901144548 82 0 0.0 0.0 0.00 0.00 0.00 73 1017.3
20260901144025 82 0 0.0 0.0 0.00 0.00 0.00 74 1017.3
20260901143525 81 0 0.0 0.0 0.00 0.00 0.00 75 1017.3
20260901143048 81 0 0.0 0.0 0.00 0.00 0.00 75 1017.2
20260901142526 80 0 0.0 0.0 0.00 0.00 0.00 77 1017.2
20260901142027 80 0 0.0 0.0 0.00 0.00 0.00 77 1017.2
20260901141546 80 0 0.0 0.0 0.00 0.00 0.00 77 1017.2
20260901141026 79 0 0.0 0.0 0.00 0.00 0.00 77 1017.2
20260901140528 79 0 0.0 0.0 0.00 0.00 0.00 77 1017.3
20260901140052 79 0 0.0 0.0 0.00 0.00 0.00 79 1017.3
20260901135527 78 0 0.0 0.0 0.00 0.00 0.00 79 1017.2
20260901135025 78 0 0.0 0.0 0.00 0.00 0.00 79 1017.3
20260901134610 78 0 0.0 0.0 0.00 0.00 0.00 80 1017.3
20260901134027 78 0 0.0 0.0 0.00 0.00 0.00 80 1017.3
20260901133525 77 0 0.0 0.0 0.00 0.00 0.00 80 1017.3
20260901133055 77 0 0.0 0.0 0.00 0.00 0.00 81 1017.3